STARLINK-37321, 69198

Orbit data source: Space-Track

STARLINK-37321, 69198 is a payload satellite owned by SpaceX/Seattle (US) in LEO that was launched on Tue, 26 May 2026 UTC via an FALCON 9 launch vehicle from the Air Force Western Test Range (AFWTR). Payload-class satellites include a variety of spacecraft equipped with specific instruments for various scientific and technological missions. These include communications satellites like Starlink; space stations such as the ISS; scientific satellites like the Hubble; Earth observation satellites from companies like Planet Labs, Umbra, and HawkEye 360; GPS; miniature CubeSats for education and research; and military/defense satellites.

Not visible in the next 10 days
Identifier
69198, 2026-114S
Orbit
LEO
Country
Flag of USUS
Related business
Manufacturer
SpaceX/Seattle
Mission
Operational spacecraft
Bus & Motor
STARLINK V2MO, Unknown motor
Mass
575 kg wet, ~530 kg dry
Launch date (UTC)
2026-05-26 (4 weeks ago)
Launch vehicle
FALCON 9
Launch site
Air Force Western Test Range (AFWTR)
Object type
Payload
Rocket body
Debris
Shape & HBR
Unknown
Radar Cross Section
Large (>1 m²)

Expand to show TLE details & history
Last TLE update: 14 hours ago

TLE from 14 hours ago
0 STARLINK-37321
1 69198U 26114S   26171.28346316  .00039589  00000-0  20314-3 0  9994
2 69198  53.1573 186.5964 0001327 114.0593 246.0568 15.80879369  5264
Epoch: 2026-06-20T06:48Z
TLE epoch observation values (Epoch: 2026-06-20T06:48:11.217Z)
Latitude
-0.00005°
Longitude
176.04932°
Altitude
329.233 km
Speed
7.712 km/s
True Right ascension
12h 26m 23s
True Declination
0° 00' 00"
Sunlit
Object was in daylight at epoch
Visualization orbit readout
Latitude
Unknown
Longitude
Unknown
Altitude
Unknown
Speed
Unknown
Apparent Right ascension
Unknown
Apparent Declination
Unknown
Sunlit
N/A
Visualization observer readout
Local Sidereal Time
07:15:55
Azimuth
Unknown
Elevation
Unknown
Doppler factor
Unknown
Orbital elements
Apogee altitude
329.105 km
Perigee altitude
327.325 km
Semi-major axis
6,706.352 km
Eccentricity
0.00013
Inclination
53.1573°
RAAN
186.5964°
Arg. of periapsis
114.0593°
True anomaly
246.0429°
Mean anomaly
246.0568°
Eccentric anomaly
246.04985°
Mean motion
3.95197 °/min
Orbital period
91.09 mins
BSTAR
0.00020314
Loading maneuver chart data...
Computing Atmospheric mass density...
Loading historical data...
Loading historical data...
Loading historical data...
Loading historical data...
Loading historical data...
Loading historical data...
Loading historical data...

Documentation

Showing up to 5 results
|